カタログに戻る

COSMOS 1814

運用中軍事LEO
NORAD 17303·PAYLOAD·🇷🇺 Russia

打ち上げ Jan 21, 1987 から Plesetsk Cosmodrome

Loading…

次のパス (今後24時間)

TLE

最新Source: Space-Track

元期: Sep 14, 2026, 22:51 UTC

1 17303U 87006A   26257.95234795  .00000064  00000-0  30741-4 0  9990
2 17303  74.0535  93.0264 0024494 171.7591 188.3969 14.36025085 75121

AllMySatでCOSMOS 1814をリアルタイム追跡

Download on the App Store